Location: New Plymouth
(39.0670°S, 174.0830°E)
Time: 13:25:33
(UTC+13:00)

ISS - Visible Passes

Search period start: 24 January 2019 00:00
Search period end: 03 February 2019 00:00
Orbit: 404 x 410 km, 51.6° (Epoch: 24 January)

Date Brightness Start Highest point End Pass type
(mag) Time Alt. Az. Time Alt. Az. Time Alt. Az.
26 Jan -1.1 05:40:57 10° NNE 05:42:39 13° NE 05:44:20 10° E visible
28 Jan -2.5 05:33:11 11° NNW 05:36:08 34° NE 05:39:13 10° ESE visible
29 Jan -1.7 04:44:01 16° NNE 04:44:53 18° NE 04:47:14 10° E visible
30 Jan -3.8 05:27:29 19° NW 05:29:43 87° SW 05:33:06 10° SE visible
31 Jan -3.3 04:38:10 46° NNE 04:38:20 46° NE 04:41:35 10° ESE visible
01 Feb -1.1 03:48:46 16° E 03:48:46 16° E 03:49:47 10° ESE visible
01 Feb -2.7 05:21:29 19° W 05:23:26 36° SSW 05:26:36 10° SE visible
02 Feb -3.6 04:32:02 64° SSW 04:32:02 64° SSW 04:35:16 10° SE visible
02 Feb -1.3 06:06:58 10° SW 06:08:59 15° SSW 06:11:01 10° SSE visible
